SYN002 NZQN-NZCH

Flight info

Callsign SYN002
Flight time 0h 41m
Altitude 25000
Route QN Q787 TIMJO Y153 DOPKI
Aircraft BCS3/M-SBDE2E3GIRWXY/LB1

Departure

Time 2026-05-08 07:45
Airport Queenstown Airport (NZQN)

Arrival

Time 2026-05-08 08:27
Airport Christchurch International Airport (NZCH)
Time Latitude Longitude Altitude Speed Heading
2026-05-08 07:11 -45.02093 168.73899 1172 ft 0 kts 252°
2026-05-08 07:30 -45.02092 168.73901 1172 ft 0 kts 252°
2026-05-08 07:31 -45.02088 168.73919 1171 ft 2 kts 246°
2026-05-08 07:31 -45.02079 168.73939 1173 ft 2 kts 220°
2026-05-08 07:31 -45.02066 168.73951 1170 ft 2 kts 194°
2026-05-08 07:32 -45.02050 168.73953 1172 ft 2 kts 169°
2026-05-08 07:32 -45.02045 168.73952 1175 ft 0 kts 158°
2026-05-08 07:33 -45.02049 168.73955 1172 ft 0 kts 147°
2026-05-08 07:34 -45.02050 168.73957 1172 ft 0 kts 132°
2026-05-08 07:36 -45.02051 168.73959 1172 ft 1 kts 132°
2026-05-08 07:36 -45.02054 168.73966 1172 ft 2 kts 126°
2026-05-08 07:36 -45.02060 168.74002 1153 ft 5 kts 95°
2026-05-08 07:36 -45.02053 168.74040 1174 ft 2 kts 57°
2026-05-08 07:37 -45.02050 168.74044 1175 ft 0 kts 49°
2026-05-08 07:37 -45.02043 168.74050 1177 ft 3 kts 32°
2026-05-08 07:37 -45.02033 168.74059 1176 ft 0 kts 31°
2026-05-08 07:38 -45.02024 168.74066 1177 ft 2 kts 26°
2026-05-08 07:38 -45.02023 168.74066 1177 ft 0 kts 26°
2026-05-08 07:39 -45.02023 168.74067 1177 ft 0 kts 26°
2026-05-08 07:40 -45.02007 168.74077 1175 ft 5 kts 25°
2026-05-08 07:40 -45.01954 168.74103 1177 ft 6 kts
2026-05-08 07:40 -45.01942 168.74098 1178 ft 2 kts 337°
2026-05-08 07:40 -45.01927 168.74076 1177 ft 5 kts 300°
2026-05-08 07:41 -45.01923 168.74019 1179 ft 7 kts 268°
2026-05-08 07:41 -45.01932 168.73943 1179 ft 9 kts 259°
2026-05-08 07:41 -45.01950 168.73826 1178 ft 16 kts 257°
2026-05-08 07:41 -45.01981 168.73636 1172 ft 20 kts 257°
2026-05-08 07:42 -45.01986 168.73572 1170 ft 4 kts 270°
2026-05-08 07:42 -45.01988 168.73544 1169 ft 0 kts 244°
2026-05-08 07:42 -45.01990 168.73540 1169 ft 1 kts 237°
2026-05-08 07:42 -45.01993 168.73538 1169 ft 0 kts 219°
2026-05-08 07:43 -45.01995 168.73537 1169 ft 0 kts 206°
2026-05-08 07:43 -45.02000 168.73536 1166 ft 1 kts 184°
2026-05-08 07:43 -45.02003 168.73538 1167 ft 1 kts 163°
2026-05-08 07:43 -45.02005 168.73542 1167 ft 0 kts 136°
2026-05-08 07:44 -45.02005 168.73546 1168 ft 0 kts 114°
2026-05-08 07:44 -45.02005 168.73553 1168 ft 2 kts 96°
2026-05-08 07:44 -45.02005 168.73555 1168 ft 0 kts 79°
2026-05-08 07:44 -45.02002 168.73569 1167 ft 14 kts 75°
2026-05-08 07:45 -45.01922 168.74052 1177 ft 87 kts 77°
2026-05-08 07:45 -45.01733 168.75209 1225 ft 146 kts 77°
2026-05-08 07:45 -45.01512 168.76547 2171 ft 143 kts 77°
2026-05-08 07:45 -45.01286 168.77973 2839 ft 151 kts 79°
2026-05-08 07:46 -45.01063 168.79418 3626 ft 154 kts 79°
2026-05-08 07:46 -45.00825 168.80969 4354 ft 165 kts 79°
2026-05-08 07:46 -45.00533 168.82519 5251 ft 162 kts 66°
2026-05-08 07:46 -44.99864 168.83781 6152 ft 160 kts 41°
2026-05-08 07:47 -44.98888 168.84562 6940 ft 162 kts 17°
2026-05-08 07:47 -44.97790 168.84704 7862 ft 157 kts 355°
2026-05-08 07:47 -44.96759 168.84264 8729 ft 156 kts 338°
2026-05-08 07:47 -44.95907 168.83335 9555 ft 159 kts 320°
2026-05-08 07:48 -44.95307 168.81955 10197 ft 173 kts 300°
2026-05-08 07:48 -44.95103 168.80219 10802 ft 188 kts 282°
2026-05-08 07:48 -44.95098 168.78367 11496 ft 189 kts 281°
2026-05-08 07:48 -44.95175 168.76461 12023 ft 208 kts 267°
2026-05-08 07:49 -44.95860 168.74511 12429 ft 238 kts 236°
2026-05-08 07:49 -44.96720 168.73485 12787 ft 250 kts 213°
2026-05-08 07:49 -44.98408 168.72784 13301 ft 260 kts 180°
2026-05-08 07:49 -45.00140 168.73311 13796 ft 260 kts 148°
2026-05-08 07:50 -45.01509 168.74943 14092 ft 259 kts 116°
2026-05-08 07:50 -45.02094 168.77213 14753 ft 240 kts 88°
2026-05-08 07:50 -45.01934 168.79490 15406 ft 229 kts 64°
2026-05-08 07:50 -45.01175 168.81408 16045 ft 221 kts 43°
2026-05-08 07:51 -44.99978 168.82714 16663 ft 218 kts 22°
2026-05-08 07:51 -44.98535 168.83419 17053 ft 228 kts 15°
2026-05-08 07:51 -44.96961 168.84068 17275 ft 243 kts 15°
2026-05-08 07:51 -44.95277 168.84761 17494 ft 260 kts 15°
2026-05-08 07:52 -44.93494 168.85498 17728 ft 276 kts 15°
2026-05-08 07:52 -44.91600 168.86283 17922 ft 291 kts 16°
2026-05-08 07:52 -44.89608 168.87111 18118 ft 306 kts 16°
2026-05-08 07:52 -44.87514 168.87983 18234 ft 322 kts 15°
2026-05-08 07:53 -44.85334 168.88890 18668 ft 328 kts 15°
2026-05-08 07:53 -44.83171 168.90007 19159 ft 333 kts 22°
2026-05-08 07:53 -44.81038 168.91340 19650 ft 339 kts 22°
2026-05-08 07:53 -44.78929 168.92680 20341 ft 337 kts 22°
2026-05-08 07:54 -44.76767 168.94051 20861 ft 340 kts 22°
2026-05-08 07:54 -44.74594 168.95428 21353 ft 344 kts 22°
2026-05-08 07:54 -44.72402 168.96815 21909 ft 348 kts 22°
2026-05-08 07:54 -44.70321 168.98568 22505 ft 354 kts 38°
2026-05-08 07:55 -44.68755 169.01304 23010 ft 367 kts 55°
2026-05-08 07:55 -44.67594 169.04528 23497 ft 371 kts 59°
2026-05-08 07:55 -44.66518 169.07845 23940 ft 374 kts 59°
2026-05-08 07:55 -44.65463 169.11153 24233 ft 380 kts 59°
2026-05-08 07:56 -44.64373 169.14573 24293 ft 385 kts 59°
2026-05-08 07:56 -44.63295 169.17969 24288 ft 377 kts 58°
2026-05-08 07:56 -44.62235 169.21306 24285 ft 372 kts 58°
2026-05-08 07:56 -44.61173 169.24631 24278 ft 375 kts 58°
2026-05-08 07:57 -44.60101 169.27985 24280 ft 377 kts 58°
2026-05-08 07:57 -44.59032 169.31330 24278 ft 375 kts 58°
2026-05-08 07:57 -44.57965 169.34666 24276 ft 375 kts 57°
2026-05-08 07:57 -44.56891 169.38018 24272 ft 374 kts 57°
2026-05-08 07:58 -44.55826 169.41340 24275 ft 374 kts 57°
2026-05-08 07:58 -44.54771 169.44629 24274 ft 376 kts 57°
2026-05-08 07:58 -44.53696 169.47970 24279 ft 376 kts 57°
2026-05-08 07:58 -44.52626 169.51294 24260 ft 372 kts 57°
2026-05-08 07:59 -44.51565 169.54584 24279 ft 369 kts 57°
2026-05-08 07:59 -44.50495 169.57890 24272 ft 375 kts 56°
2026-05-08 07:59 -44.49413 169.61233 24273 ft 377 kts 56°
2026-05-08 07:59 -44.48333 169.64573 24265 ft 375 kts 56°
2026-05-08 08:00 -44.47259 169.67889 24265 ft 373 kts 56°
2026-05-08 08:00 -44.46180 169.71196 24268 ft 374 kts 54°
2026-05-08 08:00 -44.44982 169.74438 24277 ft 373 kts 52°
2026-05-08 08:00 -44.43752 169.77625 24272 ft 371 kts 52°
2026-05-08 08:01 -44.42525 169.80794 24261 ft 370 kts 51°
2026-05-08 08:01 -44.41297 169.83959 24258 ft 370 kts 51°
2026-05-08 08:01 -44.40069 169.87122 24263 ft 370 kts 51°
2026-05-08 08:01 -44.38839 169.90287 24258 ft 371 kts 51°
2026-05-08 08:02 -44.37608 169.93458 24261 ft 370 kts 51°
2026-05-08 08:02 -44.36396 169.96576 24268 ft 370 kts 51°
2026-05-08 08:02 -44.35161 169.99749 24265 ft 370 kts 51°
2026-05-08 08:02 -44.33932 170.02906 24263 ft 369 kts 51°
2026-05-08 08:03 -44.32703 170.06060 24263 ft 369 kts 51°
2026-05-08 08:03 -44.31471 170.09216 24263 ft 370 kts 51°
2026-05-08 08:03 -44.30238 170.12373 24262 ft 370 kts 51°
2026-05-08 08:03 -44.29008 170.15521 24260 ft 369 kts 51°
2026-05-08 08:04 -44.27780 170.18661 24263 ft 369 kts 51°
2026-05-08 08:04 -44.26546 170.21810 24260 ft 369 kts 51°
2026-05-08 08:04 -44.25314 170.24950 24255 ft 369 kts 51°
2026-05-08 08:04 -44.24082 170.28087 24260 ft 369 kts 50°
2026-05-08 08:05 -44.22864 170.31187 24257 ft 370 kts 51°
2026-05-08 08:05 -44.21614 170.34363 24249 ft 368 kts 50°
2026-05-08 08:05 -44.20397 170.37453 24261 ft 368 kts 50°
2026-05-08 08:05 -44.19162 170.40585 24255 ft 369 kts 50°
2026-05-08 08:06 -44.17925 170.43718 24252 ft 368 kts 50°
2026-05-08 08:06 -44.16687 170.46850 24257 ft 368 kts 50°
2026-05-08 08:06 -44.15449 170.49981 24244 ft 368 kts 50°
2026-05-08 08:06 -44.14209 170.53111 24256 ft 368 kts 50°
2026-05-08 08:07 -44.12973 170.56228 24250 ft 368 kts 50°
2026-05-08 08:07 -44.11734 170.59349 24255 ft 368 kts 50°
2026-05-08 08:07 -44.10492 170.62475 24245 ft 369 kts 50°
2026-05-08 08:07 -44.09262 170.65569 24244 ft 368 kts 50°
2026-05-08 08:08 -44.08025 170.68678 24242 ft 368 kts 50°
2026-05-08 08:08 -44.06778 170.71801 24245 ft 369 kts 50°
2026-05-08 08:08 -44.05534 170.74919 24238 ft 367 kts 50°
2026-05-08 08:08 -44.04294 170.78023 24237 ft 368 kts 50°
2026-05-08 08:09 -44.03044 170.81143 24242 ft 370 kts 50°
2026-05-08 08:09 -44.01796 170.84259 24236 ft 369 kts 50°
2026-05-08 08:09 -44.00548 170.87375 24239 ft 369 kts 50°
2026-05-08 08:09 -43.99301 170.90483 24237 ft 369 kts 50°
2026-05-08 08:10 -43.98042 170.93614 24239 ft 370 kts 50°
2026-05-08 08:10 -43.96782 170.96743 23925 ft 373 kts 50°
2026-05-08 08:10 -43.95514 170.99889 23417 ft 374 kts 50°
2026-05-08 08:10 -43.94260 171.03002 22938 ft 373 kts 50°
2026-05-08 08:11 -43.92993 171.06145 22392 ft 373 kts 50°
2026-05-08 08:11 -43.91724 171.09288 21860 ft 371 kts 49°
2026-05-08 08:11 -43.90470 171.12395 21399 ft 367 kts 49°
2026-05-08 08:11 -43.89236 171.15448 21170 ft 359 kts 50°
2026-05-08 08:12 -43.88017 171.18457 20944 ft 358 kts 50°
2026-05-08 08:12 -43.86800 171.21456 20630 ft 357 kts 50°
2026-05-08 08:12 -43.85600 171.24412 20192 ft 355 kts 50°
2026-05-08 08:12 -43.84373 171.27428 19734 ft 355 kts 50°
2026-05-08 08:13 -43.83178 171.30362 19268 ft 353 kts 50°
2026-05-08 08:13 -43.81972 171.33323 18806 ft 351 kts 50°
2026-05-08 08:13 -43.80773 171.36263 18347 ft 349 kts 50°
2026-05-08 08:13 -43.79582 171.39180 17891 ft 347 kts 50°
2026-05-08 08:14 -43.78391 171.42095 17421 ft 346 kts 50°
2026-05-08 08:14 -43.77210 171.44981 16913 ft 344 kts 50°
2026-05-08 08:14 -43.76040 171.47840 16455 ft 340 kts 50°
2026-05-08 08:14 -43.74873 171.50685 16007 ft 339 kts 50°
2026-05-08 08:15 -43.73715 171.53506 15575 ft 337 kts 50°
2026-05-08 08:15 -43.72563 171.56311 15134 ft 335 kts 50°
2026-05-08 08:15 -43.71412 171.59109 14698 ft 333 kts 50°
2026-05-08 08:15 -43.70327 171.61925 14238 ft 339 kts 58°
2026-05-08 08:16 -43.69863 171.65226 13766 ft 359 kts 78°
2026-05-08 08:16 -43.69904 171.68653 13279 ft 363 kts 84°
2026-05-08 08:16 -43.70046 171.72147 12740 ft 363 kts 84°
2026-05-08 08:16 -43.70198 171.75614 12257 ft 361 kts 84°
2026-05-08 08:17 -43.70350 171.79059 11788 ft 357 kts 84°
2026-05-08 08:17 -43.70499 171.82470 11328 ft 354 kts 84°
2026-05-08 08:17 -43.70644 171.85858 10862 ft 351 kts 84°
2026-05-08 08:17 -43.70787 171.89209 10410 ft 348 kts 84°
2026-05-08 08:18 -43.70928 171.92508 9958 ft 339 kts 84°
2026-05-08 08:18 -43.71065 171.95723 9518 ft 331 kts 83°
2026-05-08 08:18 -43.71196 171.98856 9081 ft 323 kts 83°
2026-05-08 08:18 -43.71185 172.01891 8624 ft 305 kts 70°
2026-05-08 08:19 -43.70754 172.04717 8252 ft 297 kts 64°
2026-05-08 08:19 -43.70244 172.07463 7874 ft 294 kts 64°
2026-05-08 08:19 -43.69724 172.10195 7483 ft 293 kts 64°
2026-05-08 08:19 -43.69207 172.12904 7103 ft 291 kts 64°
2026-05-08 08:20 -43.68693 172.15594 6730 ft 289 kts 63°
2026-05-08 08:20 -43.68178 172.18276 6355 ft 287 kts 63°
2026-05-08 08:20 -43.67671 172.20908 5978 ft 286 kts 63°
2026-05-08 08:20 -43.67165 172.23542 5598 ft 281 kts 63°
2026-05-08 08:21 -43.66688 172.26061 5209 ft 261 kts 63°
2026-05-08 08:21 -43.66247 172.28397 4882 ft 242 kts 62°
2026-05-08 08:21 -43.65837 172.30559 4593 ft 224 kts 62°
2026-05-08 08:21 -43.65447 172.32583 4285 ft 213 kts 62°
2026-05-08 08:22 -43.64920 172.34356 3981 ft 183 kts 37°
2026-05-08 08:22 -43.64090 172.35538 3785 ft 164 kts 28°
2026-05-08 08:22 -43.63318 172.36691 3529 ft 162 kts 38°
2026-05-08 08:22 -43.62629 172.37906 3342 ft 162 kts 35°
2026-05-08 08:23 -43.61835 172.39091 3134 ft 173 kts 32°
2026-05-08 08:23 -43.60960 172.40230 2890 ft 170 kts 30°
2026-05-08 08:23 -43.60068 172.41291 2676 ft 169 kts 28°
2026-05-08 08:23 -43.59161 172.42294 2462 ft 169 kts 27°
2026-05-08 08:24 -43.58236 172.43284 2242 ft 169 kts 27°
2026-05-08 08:24 -43.57298 172.44216 2006 ft 161 kts 16°
2026-05-08 08:24 -43.56263 172.44751 1804 ft 163 kts 18°
2026-05-08 08:24 -43.55309 172.45664 1585 ft 169 kts 32°
2026-05-08 08:25 -43.54431 172.46774 1371 ft 175 kts 34°
2026-05-08 08:25 -43.53503 172.47876 1137 ft 175 kts 32°
2026-05-08 08:25 -43.52586 172.48921 908 ft 164 kts 34°
2026-05-08 08:25 -43.51770 172.49866 709 ft 145 kts 36°
2026-05-08 08:26 -43.51034 172.50730 534 ft 132 kts 37°
2026-05-08 08:26 -43.50356 172.51508 381 ft 124 kts 39°
2026-05-08 08:26 -43.49688 172.52298 218 ft 127 kts 37°
2026-05-08 08:26 -43.49041 172.53040 118 ft 100 kts 38°
2026-05-08 08:27 -43.48653 172.53489 121 ft 46 kts 40°
2026-05-08 08:27 -43.48501 172.53707 117 ft 15 kts 76°
2026-05-08 08:27 -43.48470 172.53852 114 ft 17 kts 71°
2026-05-08 08:27 -43.48459 172.53902 112 ft 0 kts 80°